Regional Weather Roundup
Issued by NWS Charleston, WV

Home | Current Version | Previous Version | Graphics & Text | Print | Product List | Glossary On
Versions: 1 2 3 4 5 6 7 8 9 10 11 12 13 14 15 16 17 18 19 20 21 22 23 24 25 26 27 28 29 30 31 32 33 34 35 36 37 38 39 40 41 42 43 44 45 46 47 48 49 50
893
ASUS41 KRLX 250010
RWRRLX
West Virginia Regional Weather Roundup
National Weather Service Charleston WV
800 PM EDT SUN JUL 24 2016

Note: "fair" indicates few or no clouds below 12,000 feet with no
significant weather and/or obstructions to visibility.

WVZ003-250100-
Northern Panhandle of West Virginia

CITY           SKY/WX    TMP DP  RH WIND       PRES   REMARKS
WHEELING         N/A     78  68  71 SE3       30.02S
$$

WVZ009-250100-
Northwest West Virginia

CITY           SKY/WX    TMP DP  RH WIND       PRES   REMARKS
PARKERSBURG      N/A     88  74  63 CALM      30.01R HX  96
$$

WVZ006-250100-
Western West Virginia

CITY           SKY/WX    TMP DP  RH WIND       PRES   REMARKS
HUNTINGTON       N/A     89  73  59 S3        29.99S HX  97
$$

WVZ015-250100-
West Central West Virginia

CITY           SKY/WX    TMP DP  RH WIND       PRES   REMARKS
CHARLESTON       N/A     91  72  53 CALM      30.00S HX  98
$$

WVZ022-031-250100-
North Central West Virginia

CITY           SKY/WX    TMP DP  RH WIND       PRES   REMARKS
CLARKSBURG       N/A     86  71  60 CALM      30.01F
MORGANTOWN       N/A     77  67  71 NE5       30.04S
$$

WVZ025-035-042-045-250100-
Southern West Virginia

CITY           SKY/WX    TMP DP  RH WIND       PRES   REMARKS
BECKLEY          N/A     81  68  64 E6        30.12R
LOGAN            N/A     86  73  66 CALM      30.04F
BLUEFIELD      MOCLDY    83  68  60 VRB3      30.14R
LEWISBURG        N/A     82  69  65 N8        30.11S
$$

WVZ047-250100-
Northern Mountains of West Virginia

CITY           SKY/WX    TMP DP  RH WIND       PRES   REMARKS
ELKINS           N/A     84  69  60 CALM      30.09R
$$

WVZ052-250100-
Eastern Panhandle of West Virginia

CITY           SKY/WX    TMP DP  RH WIND       PRES   REMARKS
MARTINSBURG    MOCLDY    90  68  48 NW7       29.96R
PETERSBURG       N/A     90  70  51 NW6       30.00R
$$




USA.gov is the U.S. government's official web portal to all federal, state and local government web resources and services.